TimeHST,TemperatureF,Dew PointF,Humidity,Sea Level PressureIn,VisibilityMPH,Wind Direction,Wind SpeedMPH,Gust SpeedMPH,PrecipitationIn,Events,Conditions,WindDirDegrees,DateUTC
12:53 AM,68.0,64.0,87,29.91,10.0,NNW,4.6,-,N/A,,Partly Cloudy,330,2013-01-15 10:53:00
1:53 AM,66.9,64.0,90,29.92,10.0,Calm,Calm,-,N/A,,Scattered Clouds,0,2013-01-15 11:53:00
2:53 AM,66.9,64.0,90,29.91,10.0,Calm,Calm,-,N/A,,Scattered Clouds,0,2013-01-15 12:53:00
3:53 AM,66.9,63.0,87,29.89,10.0,NW,4.6,-,N/A,,Partly Cloudy,310,2013-01-15 13:53:00
4:53 AM,66.0,63.0,90,29.91,10.0,Calm,Calm,-,N/A,,Partly Cloudy,0,2013-01-15 14:53:00
5:53 AM,66.0,63.0,90,29.92,10.0,NNW,5.8,-,N/A,,Partly Cloudy,330,2013-01-15 15:53:00
6:53 AM,66.0,62.1,87,29.92,10.0,NW,6.9,-,N/A,,Partly Cloudy,310,2013-01-15 16:53:00
7:53 AM,68.0,63.0,84,29.92,10.0,Calm,Calm,-,N/A,,Scattered Clouds,0,2013-01-15 17:53:00
8:53 AM,71.1,63.0,75,29.95,10.0,NNW,6.9,-,N/A,,Scattered Clouds,340,2013-01-15 18:53:00
9:53 AM,75.0,63.0,66,29.96,10.0,NW,10.4,-,N/A,,Scattered Clouds,320,2013-01-15 19:53:00
10:53 AM,77.0,61.0,58,29.94,10.0,Calm,Calm,-,N/A,,Scattered Clouds,0,2013-01-15 20:53:00
11:53 AM,77.0,63.0,62,29.91,10.0,South,8.1,-,N/A,,Scattered Clouds,170,2013-01-15 21:53:00
12:53 PM,75.9,63.0,64,29.88,10.0,SSW,9.2,-,N/A,,Scattered Clouds,210,2013-01-15 22:53:00
1:53 PM,77.0,62.1,60,29.86,10.0,SSW,10.4,-,N/A,,Scattered Clouds,210,2013-01-15 23:53:00
2:53 PM,77.0,61.0,58,29.86,10.0,SSW,8.1,-,N/A,,Scattered Clouds,200,2013-01-16 00:53:00
3:53 PM,77.0,60.1,56,29.88,10.0,SW,9.2,-,N/A,,Scattered Clouds,220,2013-01-16 01:53:00
4:53 PM,75.9,60.1,58,29.89,10.0,SSW,8.1,-,N/A,,Scattered Clouds,210,2013-01-16 02:53:00
5:53 PM,75.0,59.0,57,29.91,10.0,WNW,13.8,-,N/A,,Scattered Clouds,300,2013-01-16 03:53:00
6:53 PM,72.0,57.0,59,29.94,10.0,NNW,16.1,24.2,N/A,,Mostly Cloudy,340,2013-01-16 04:53:00
7:53 PM,72.0,57.0,59,29.95,10.0,North,9.2,-,N/A,,Mostly Cloudy,360,2013-01-16 05:53:00
8:53 PM,70.0,55.9,61,29.95,10.0,North,6.9,-,N/A,,Partly Cloudy,360,2013-01-16 06:53:00
9:53 PM,68.0,55.9,65,29.95,10.0,North,3.5,-,N/A,,Partly Cloudy,360,2013-01-16 07:53:00
10:53 PM,66.9,57.0,70,29.95,10.0,NNW,3.5,-,N/A,,Clear,340,2013-01-16 08:53:00
11:53 PM,64.9,55.9,73,29.94,10.0,Calm,Calm,-,N/A,,Partly Cloudy,0,2013-01-16 09:53:00